Time,TemperatureF,DewpointF,PressureIn,WindDirection,WindDirectionDegrees,WindSpeedMPH,WindSpeedGustMPH,Humidity,HourlyPrecipIn,Conditions,Clouds,dailyrainin,SoftwareType,DateUTC
2013-11-30 00:00:00,30.1,23.1,30.24,South,190,0.0,2.0,75,0.00,,---,0.00,VWS V14.00,2013-11-30 06:00:00,
2013-11-30 00:05:00,30.1,23.1,30.24,SSE,160,0.0,0.0,75,0.00,,---,0.00,VWS V14.00,2013-11-30 06:05:00,
2013-11-30 00:10:00,30.1,23.1,30.23,South,184,0.0,0.0,75,0.00,,---,0.00,VWS V14.00,2013-11-30 06:10:00,
2013-11-30 00:15:00,30.0,23.0,30.23,SSE,160,0.0,2.0,75,0.00,,---,0.00,VWS V14.00,2013-11-30 06:15:00,
2013-11-30 00:20:00,30.1,23.5,30.23,South,170,0.0,4.0,76,0.00,,---,0.00,VWS V14.00,2013-11-30 06:20:00,
2013-11-30 00:25:00,30.0,23.4,30.23,South,169,0.0,0.0,76,0.00,,---,0.00,VWS V14.00,2013-11-30 06:25:00,
2013-11-30 00:30:00,29.9,23.3,30.23,East,94,0.0,0.0,76,0.00,,---,0.00,VWS V14.00,2013-11-30 06:30:00,
2013-11-30 00:35:00,29.9,23.3,30.23,SE,146,2.0,4.0,76,0.00,,---,0.00,VWS V14.00,2013-11-30 06:35:00,
2013-11-30 00:40:00,29.8,23.2,30.22,SE,146,0.0,1.0,76,0.00,,---,0.00,VWS V14.00,2013-11-30 06:40:00,
2013-11-30 00:45:00,29.8,23.2,30.22,SE,146,0.0,0.0,76,0.00,,---,0.00,VWS V14.00,2013-11-30 06:45:00,
2013-11-30 00:50:00,29.7,23.1,30.22,SE,146,0.0,0.0,76,0.00,,---,0.00,VWS V14.00,2013-11-30 06:50:00,
2013-11-30 00:55:00,29.6,23.0,30.22,SE,146,0.0,0.0,76,0.00,,---,0.00,VWS V14.00,2013-11-30 06:55:00,
2013-11-30 00:56:00,29.5,22.9,30.22,SE,146,0.0,0.0,76,0.00,,---,0.00,VWS V14.00,2013-11-30 06:56:00,
2013-11-30 01:00:00,29.6,23.3,30.22,SE,127,0.0,4.0,77,0.00,,---,0.00,VWS V14.00,2013-11-30 07:00:00,
2013-11-30 01:01:00,29.6,23.3,30.21,SE,127,0.0,0.0,77,0.00,,---,0.00,VWS V14.00,2013-11-30 07:01:00,
2013-11-30 01:05:00,29.5,23.2,30.21,SE,127,0.0,0.0,77,0.00,,---,0.00,VWS V14.00,2013-11-30 07:05:00,
2013-11-30 01:06:00,29.5,23.2,30.21,SE,126,0.0,2.0,77,0.00,,---,0.00,VWS V14.00,2013-11-30 07:06:00,
2013-11-30 01:10:00,29.4,23.1,30.21,SE,126,0.0,2.0,77,0.00,,---,0.00,VWS V14.00,2013-11-30 07:10:00,
2013-11-30 01:11:00,29.4,23.1,30.21,SSE,167,0.0,3.0,77,0.00,,---,0.00,VWS V14.00,2013-11-30 07:11:00,
2013-11-30 01:15:00,29.5,23.2,30.21,SSE,159,0.0,4.0,77,0.00,,---,0.00,VWS V14.00,2013-11-30 07:15:00,
2013-11-30 01:16:00,29.5,23.2,30.21,ESE,112,1.0,1.0,77,0.00,,---,0.00,VWS V14.00,2013-11-30 07:16:00,
2013-11-30 01:20:00,29.6,23.3,30.21,SSE,155,0.0,1.0,77,0.00,,---,0.00,VWS V14.00,2013-11-30 07:20:00,
2013-11-30 01:21:00,29.6,23.3,30.20,SE,140,3.0,4.0,77,0.00,,---,0.00,VWS V14.00,2013-11-30 07:21:00,
2013-11-30 01:25:00,29.6,23.3,30.20,SSE,161,0.0,4.0,77,0.00,,---,0.00,VWS V14.00,2013-11-30 07:25:00,
2013-11-30 01:26:00,29.6,23.3,30.20,SSE,161,0.0,0.0,77,0.00,,---,0.00,VWS V14.00,2013-11-30 07:26:00,
2013-11-30 01:30:00,29.7,23.4,30.20,ESE,114,2.0,5.0,77,0.00,,---,0.00,VWS V14.00,2013-11-30 07:30:00,
2013-11-30 01:31:00,29.6,23.3,30.20,South,176,5.0,6.0,77,0.00,,---,0.00,VWS V14.00,2013-11-30 07:31:00,
2013-11-30 01:35:00,29.7,23.4,30.20,SSE,165,3.0,6.0,77,0.00,,---,0.00,VWS V14.00,2013-11-30 07:35:00,
2013-11-30 01:37:00,29.7,23.4,30.20,SSE,165,0.0,3.0,77,0.00,,---,0.00,VWS V14.00,2013-11-30 07:37:00,
2013-11-30 01:40:00,29.7,23.4,30.20,SSE,165,0.0,3.0,77,0.00,,---,0.00,VWS V14.00,2013-11-30 07:40:00,
2013-11-30 01:42:00,29.7,23.4,30.20,SSE,164,0.0,1.0,77,0.00,,---,0.00,VWS V14.00,2013-11-30 07:42:00,
2013-11-30 01:45:00,29.7,23.4,30.20,SSE,165,0.0,1.0,77,0.00,,---,0.00,VWS V14.00,2013-11-30 07:45:00,
2013-11-30 01:47:00,29.6,23.3,30.20,ESE,119,0.0,2.0,77,0.00,,---,0.00,VWS V14.00,2013-11-30 07:47:00,
2013-11-30 01:50:00,29.5,23.2,30.20,ESE,119,0.0,2.0,77,0.00,,---,0.00,VWS V14.00,2013-11-30 07:50:00,
2013-11-30 01:52:00,29.4,23.1,30.20,ESE,120,0.0,0.0,77,0.00,,---,0.00,VWS V14.00,2013-11-30 07:52:00,
2013-11-30 01:55:00,29.2,23.2,30.20,ESE,121,0.0,0.0,78,0.00,,---,0.00,VWS V14.00,2013-11-30 07:55:00,
2013-11-30 01:57:00,29.2,23.2,30.20,ESE,120,0.0,1.0,78,0.00,,---,0.00,VWS V14.00,2013-11-30 07:57:00,
2013-11-30 02:00:00,29.0,23.0,30.20,ESE,119,0.0,1.0,78,0.00,,---,0.00,VWS V14.00,2013-11-30 08:00:00,
2013-11-30 02:02:00,28.9,22.9,30.20,ENE,76,0.0,1.0,78,0.00,,---,0.00,VWS V14.00,2013-11-30 08:02:00,
2013-11-30 02:05:00,28.8,23.1,30.20,ENE,76,0.0,2.0,79,0.00,,---,0.00,VWS V14.00,2013-11-30 08:05:00,
2013-11-30 02:07:00,28.9,23.2,30.20,NE,54,0.0,3.0,79,0.00,,---,0.00,VWS V14.00,2013-11-30 08:07:00,
2013-11-30 02:10:00,28.9,23.2,30.20,NE,54,0.0,3.0,79,0.00,,---,0.00,VWS V14.00,2013-11-30 08:10:00,
2013-11-30 02:12:00,28.9,23.2,30.20,SSW,202,2.0,2.0,79,0.00,,---,0.00,VWS V14.00,2013-11-30 08:12:00,
2013-11-30 02:15:00,29.0,23.3,30.20,SSW,202,0.0,2.0,79,0.00,,---,0.00,VWS V14.00,2013-11-30 08:15:00,
2013-11-30 02:17:00,29.1,23.4,30.20,SSW,202,0.0,0.0,79,0.00,,---,0.00,VWS V14.00,2013-11-30 08:17:00,
2013-11-30 02:20:00,29.1,23.4,30.20,SSW,213,0.0,0.0,79,0.00,,---,0.00,VWS V14.00,2013-11-30 08:20:00,
2013-11-30 02:23:00,29.0,23.3,30.20,NW,326,0.0,4.0,79,0.00,,---,0.00,VWS V14.00,2013-11-30 08:23:00,
2013-11-30 02:25:00,29.0,23.3,30.20,NW,326,0.0,4.0,79,0.00,,---,0.00,VWS V14.00,2013-11-30 08:25:00,
2013-11-30 02:28:00,29.0,23.3,30.19,NNW,327,0.0,0.0,79,0.00,,---,0.00,VWS V14.00,2013-11-30 08:28:00,
2013-11-30 02:30:00,29.0,23.3,30.19,NNW,327,0.0,0.0,79,0.00,,---,0.00,VWS V14.00,2013-11-30 08:30:00,
2013-11-30 02:33:00,28.8,23.1,30.19,NNW,327,0.0,1.0,79,0.00,,---,0.00,VWS V14.00,2013-11-30 08:33:00,
2013-11-30 02:35:00,28.8,23.1,30.19,NNW,327,0.0,1.0,79,0.00,,---,0.00,VWS V14.00,2013-11-30 08:35:00,
2013-11-30 02:38:00,28.7,23.0,30.19,NNW,327,0.0,0.0,79,0.00,,---,0.00,VWS V14.00,2013-11-30 08:38:00,
2013-11-30 02:40:00,28.7,23.0,30.18,NW,326,0.0,0.0,79,0.00,,---,0.00,VWS V14.00,2013-11-30 08:40:00,
2013-11-30 02:43:00,28.5,22.8,30.18,NW,326,0.0,0.0,79,0.00,,---,0.00,VWS V14.00,2013-11-30 08:43:00,
2013-11-30 02:45:00,28.5,22.8,30.18,NW,326,0.0,0.0,79,0.00,,---,0.00,VWS V14.00,2013-11-30 08:45:00,
2013-11-30 02:48:00,28.3,22.6,30.18,NNW,327,0.0,0.0,79,0.00,,---,0.00,VWS V14.00,2013-11-30 08:48:00,
2013-11-30 02:50:00,28.2,22.8,30.18,NNW,327,0.0,0.0,80,0.00,,---,0.00,VWS V14.00,2013-11-30 08:50:00,
2013-11-30 02:53:00,28.1,22.7,30.18,NNW,327,0.0,0.0,80,0.00,,---,0.00,VWS V14.00,2013-11-30 08:53:00,
2013-11-30 02:55:00,28.1,22.7,30.18,NNW,327,0.0,0.0,80,0.00,,---,0.00,VWS V14.00,2013-11-30 08:55:00,
2013-11-30 02:58:00,28.1,22.7,30.17,NNW,327,0.0,0.0,80,0.00,,---,0.00,VWS V14.00,2013-11-30 08:58:00,
2013-11-30 03:00:00,28.1,22.7,30.17,NW,326,0.0,0.0,80,0.00,,---,0.00,VWS V14.00,2013-11-30 09:00:00,
2013-11-30 03:04:00,28.2,23.1,30.17,NW,326,0.0,0.0,81,0.00,,---,0.00,VWS V14.00,2013-11-30 09:04:00,
2013-11-30 03:05:00,28.2,23.1,30.17,NNW,327,0.0,0.0,81,0.00,,---,0.00,VWS V14.00,2013-11-30 09:05:00,
2013-11-30 03:09:00,28.3,23.2,30.17,NNW,327,0.0,0.0,81,0.00,,---,0.00,VWS V14.00,2013-11-30 09:09:00,
2013-11-30 03:10:00,28.3,23.2,30.17,NNW,327,0.0,0.0,81,0.00,,---,0.00,VWS V14.00,2013-11-30 09:10:00,
2013-11-30 03:14:00,28.5,23.4,30.16,SSE,156,0.0,0.0,81,0.00,,---,0.00,VWS V14.00,2013-11-30 09:14:00,
2013-11-30 03:15:00,28.5,23.4,30.17,SSE,156,0.0,3.0,81,0.00,,---,0.00,VWS V14.00,2013-11-30 09:15:00,
2013-11-30 03:19:00,28.6,23.2,30.16,SSW,199,0.0,2.0,80,0.00,,---,0.00,VWS V14.00,2013-11-30 09:19:00,
2013-11-30 03:20:00,28.6,23.2,30.16,SSW,199,0.0,2.0,80,0.00,,---,0.00,VWS V14.00,2013-11-30 09:20:00,
2013-11-30 03:24:00,28.5,23.1,30.16,SSW,199,0.0,0.0,80,0.00,,---,0.00,VWS V14.00,2013-11-30 09:24:00,
2013-11-30 03:25:00,28.5,23.1,30.16,SSW,199,0.0,2.0,80,0.00,,---,0.00,VWS V14.00,2013-11-30 09:25:00,
2013-11-30 03:29:00,28.6,23.5,30.16,SSE,160,0.0,0.0,81,0.00,,---,0.00,VWS V14.00,2013-11-30 09:29:00,
2013-11-30 03:30:00,28.6,23.5,30.16,SSE,161,0.0,4.0,81,0.00,,---,0.00,VWS V14.00,2013-11-30 09:30:00,
2013-11-30 03:34:00,28.6,23.2,30.15,SSE,153,0.0,0.0,80,0.00,,---,0.00,VWS V14.00,2013-11-30 09:34:00,
2013-11-30 03:35:00,28.6,23.2,30.15,SSE,153,0.0,5.0,80,0.00,,---,0.00,VWS V14.00,2013-11-30 09:35:00,
2013-11-30 03:40:00,28.7,23.3,30.15,SSE,157,2.0,3.0,80,0.00,,---,0.00,VWS V14.00,2013-11-30 09:40:00,
2013-11-30 03:45:00,28.8,23.4,30.15,SSW,195,0.0,0.0,80,0.00,,---,0.00,VWS V14.00,2013-11-30 09:45:00,
2013-11-30 03:50:00,28.7,23.3,30.15,South,179,0.0,2.0,80,0.00,,---,0.00,VWS V14.00,2013-11-30 09:50:00,
2013-11-30 03:55:00,28.7,23.3,30.14,SSE,158,0.0,0.0,80,0.00,,---,0.00,VWS V14.00,2013-11-30 09:55:00,
2013-11-30 04:00:00,28.6,23.2,30.15,SSW,213,0.0,2.0,80,0.00,,---,0.00,VWS V14.00,2013-11-30 10:00:00,
2013-11-30 04:05:00,28.6,23.5,30.14,SSE,155,0.0,0.0,81,0.00,,---,0.00,VWS V14.00,2013-11-30 10:05:00,
2013-11-30 04:10:00,28.6,23.5,30.14,South,171,0.0,1.0,81,0.00,,---,0.00,VWS V14.00,2013-11-30 10:10:00,
2013-11-30 04:15:00,28.7,23.6,30.14,SSE,163,3.0,3.0,81,0.00,,---,0.00,VWS V14.00,2013-11-30 10:15:00,
2013-11-30 04:20:00,28.8,23.7,30.14,SSE,157,0.0,4.0,81,0.00,,---,0.00,VWS V14.00,2013-11-30 10:20:00,
2013-11-30 04:21:00,28.8,23.7,30.14,SSE,157,0.0,1.0,81,0.00,,---,0.00,VWS V14.00,2013-11-30 10:21:00,
2013-11-30 04:25:00,28.8,23.7,30.14,SSE,157,0.0,1.0,81,0.00,,---,0.00,VWS V14.00,2013-11-30 10:25:00,
2013-11-30 04:26:00,28.8,23.7,30.14,South,176,2.0,5.0,81,0.00,,---,0.00,VWS V14.00,2013-11-30 10:26:00,
2013-11-30 04:30:00,28.8,23.7,30.14,SSW,205,4.0,5.0,81,0.00,,---,0.00,VWS V14.00,2013-11-30 10:30:00,
2013-11-30 04:31:00,28.9,23.8,30.14,SSE,168,0.0,4.0,81,0.00,,---,0.00,VWS V14.00,2013-11-30 10:31:00,
2013-11-30 04:35:00,28.8,23.7,30.14,SSE,167,0.0,4.0,81,0.00,,---,0.00,VWS V14.00,2013-11-30 10:35:00,
2013-11-30 04:36:00,28.8,23.7,30.13,South,176,0.0,4.0,81,0.00,,---,0.00,VWS V14.00,2013-11-30 10:36:00,
2013-11-30 04:40:00,28.7,23.6,30.13,South,176,0.0,4.0,81,0.00,,---,0.00,VWS V14.00,2013-11-30 10:40:00,
2013-11-30 04:41:00,28.7,23.6,30.13,SE,126,1.0,5.0,81,0.00,,---,0.00,VWS V14.00,2013-11-30 10:41:00,
2013-11-30 04:45:00,28.8,23.7,30.13,SE,144,0.0,5.0,81,0.00,,---,0.00,VWS V14.00,2013-11-30 10:45:00,
2013-11-30 04:46:00,28.8,23.7,30.13,South,186,0.0,2.0,81,0.00,,---,0.00,VWS V14.00,2013-11-30 10:46:00,
2013-11-30 04:50:00,28.7,23.6,30.13,South,184,0.0,2.0,81,0.00,,---,0.00,VWS V14.00,2013-11-30 10:50:00,
2013-11-30 04:51:00,28.7,23.6,30.13,SSW,202,3.0,3.0,81,0.00,,---,0.00,VWS V14.00,2013-11-30 10:51:00,
2013-11-30 04:55:00,28.7,23.6,30.13,South,180,1.0,6.0,81,0.00,,---,0.00,VWS V14.00,2013-11-30 10:55:00,
2013-11-30 04:56:00,28.7,23.6,30.13,SSW,199,2.0,6.0,81,0.00,,---,0.00,VWS V14.00,2013-11-30 10:56:00,
2013-11-30 05:00:00,28.7,23.6,30.13,SSW,212,2.0,6.0,81,0.00,,---,0.00,VWS V14.00,2013-11-30 11:00:00,
2013-11-30 05:02:00,28.7,23.6,30.13,SSW,211,2.0,3.0,81,0.00,,---,0.00,VWS V14.00,2013-11-30 11:02:00,
2013-11-30 05:05:00,28.7,23.6,30.13,SW,232,0.0,3.0,81,0.00,,---,0.00,VWS V14.00,2013-11-30 11:05:00,
2013-11-30 05:07:00,28.7,23.6,30.13,SSW,208,0.0,4.0,81,0.00,,---,0.00,VWS V14.00,2013-11-30 11:07:00,
2013-11-30 05:10:00,28.6,23.5,30.12,SSW,208,0.0,4.0,81,0.00,,---,0.00,VWS V14.00,2013-11-30 11:10:00,
2013-11-30 05:12:00,28.5,23.4,30.12,SE,136,0.0,5.0,81,0.00,,---,0.00,VWS V14.00,2013-11-30 11:12:00,
2013-11-30 05:15:00,28.5,23.7,30.12,South,179,2.0,5.0,82,0.00,,---,0.00,VWS V14.00,2013-11-30 11:15:00,
2013-11-30 05:17:00,28.4,23.6,30.12,SW,226,0.0,3.0,82,0.00,,---,0.00,VWS V14.00,2013-11-30 11:17:00,
2013-11-30 05:20:00,28.4,23.6,30.12,SW,227,0.0,3.0,82,0.00,,---,0.00,VWS V14.00,2013-11-30 11:20:00,
2013-11-30 05:22:00,28.4,23.6,30.12,WSW,245,0.0,3.0,82,0.00,,---,0.00,VWS V14.00,2013-11-30 11:22:00,
2013-11-30 05:25:00,28.3,23.5,30.12,WSW,245,0.0,3.0,82,0.00,,---,0.00,VWS V14.00,2013-11-30 11:25:00,
2013-11-30 05:27:00,28.3,23.5,30.11,WSW,245,0.0,0.0,82,0.00,,---,0.00,VWS V14.00,2013-11-30 11:27:00,
2013-11-30 05:30:00,28.3,23.5,30.11,WSW,245,0.0,0.0,82,0.00,,---,0.00,VWS V14.00,2013-11-30 11:30:00,
2013-11-30 05:33:00,28.3,23.5,30.11,WSW,245,0.0,0.0,82,0.00,,---,0.00,VWS V14.00,2013-11-30 11:33:00,
2013-11-30 05:35:00,28.2,23.4,30.11,WSW,245,0.0,2.0,82,0.00,,---,0.00,VWS V14.00,2013-11-30 11:35:00,
2013-11-30 05:38:00,28.2,23.4,30.11,SW,215,0.0,4.0,82,0.00,,---,0.00,VWS V14.00,2013-11-30 11:38:00,
2013-11-30 05:40:00,28.2,23.7,30.11,SW,215,0.0,4.0,83,0.00,,---,0.00,VWS V14.00,2013-11-30 11:40:00,
2013-11-30 05:43:00,28.2,23.7,30.11,SSW,202,1.0,3.0,83,0.00,,---,0.00,VWS V14.00,2013-11-30 11:43:00,
2013-11-30 05:45:00,28.2,23.7,30.11,South,186,0.0,4.0,83,0.00,,---,0.00,VWS V14.00,2013-11-30 11:45:00,
2013-11-30 05:48:00,28.3,23.8,30.11,South,187,2.0,2.0,83,0.00,,---,0.00,VWS V14.00,2013-11-30 11:48:00,
2013-11-30 05:50:00,28.4,23.9,30.11,South,187,1.0,2.0,83,0.00,,---,0.00,VWS V14.00,2013-11-30 11:50:00,
2013-11-30 05:53:00,28.4,23.9,30.11,South,175,0.0,2.0,83,0.00,,---,0.00,VWS V14.00,2013-11-30 11:53:00,
2013-11-30 05:55:00,28.3,23.8,30.11,South,175,0.0,2.0,83,0.00,,---,0.00,VWS V14.00,2013-11-30 11:55:00,
2013-11-30 05:58:00,28.4,23.9,30.11,SSW,213,0.0,5.0,83,0.00,,---,0.00,VWS V14.00,2013-11-30 11:58:00,
2013-11-30 06:00:00,28.4,23.9,30.11,SSW,213,0.0,5.0,83,0.00,,---,0.00,VWS V14.00,2013-11-30 12:00:00,
2013-11-30 06:03:00,28.3,23.8,30.11,SSW,213,0.0,0.0,83,0.00,,---,0.00,VWS V14.00,2013-11-30 12:03:00,
2013-11-30 06:05:00,28.3,23.8,30.11,SSW,213,0.0,0.0,83,0.00,,---,0.00,VWS V14.00,2013-11-30 12:05:00,
2013-11-30 06:08:00,28.3,23.8,30.11,SSW,213,0.0,0.0,83,0.00,,---,0.00,VWS V14.00,2013-11-30 12:08:00,
2013-11-30 06:10:00,28.2,23.7,30.11,SSW,213,0.0,0.0,83,0.00,,---,0.00,VWS V14.00,2013-11-30 12:10:00,
2013-11-30 06:13:00,28.1,23.6,30.11,SSW,213,0.0,0.0,83,0.00,,---,0.00,VWS V14.00,2013-11-30 12:13:00,
2013-11-30 06:15:00,28.0,23.5,30.11,SSW,213,0.0,0.0,83,0.00,,---,0.00,VWS V14.00,2013-11-30 12:15:00,
2013-11-30 06:18:00,28.0,23.5,30.10,South,180,2.0,2.0,83,0.00,,---,0.00,VWS V14.00,2013-11-30 12:18:00,
2013-11-30 06:20:00,28.0,23.8,30.10,South,180,0.0,2.0,84,0.00,,---,0.00,VWS V14.00,2013-11-30 12:20:00,
2013-11-30 06:24:00,28.2,24.0,30.10,South,180,0.0,0.0,84,0.00,,---,0.00,VWS V14.00,2013-11-30 12:24:00,
2013-11-30 06:25:00,28.2,24.0,30.10,South,180,0.0,0.0,84,0.00,,---,0.00,VWS V14.00,2013-11-30 12:25:00,
2013-11-30 06:29:00,28.4,24.2,30.10,South,169,2.0,7.0,84,0.00,,---,0.00,VWS V14.00,2013-11-30 12:29:00,
2013-11-30 06:30:00,28.4,24.2,30.10,SSE,168,2.0,7.0,84,0.00,,---,0.00,VWS V14.00,2013-11-30 12:30:00,
2013-11-30 06:34:00,28.6,24.4,30.10,South,169,0.0,3.0,84,0.00,,---,0.00,VWS V14.00,2013-11-30 12:34:00,
2013-11-30 06:35:00,28.6,24.4,30.10,South,169,0.0,3.0,84,0.00,,---,0.00,VWS V14.00,2013-11-30 12:35:00,
2013-11-30 06:39:00,28.7,24.5,30.10,South,180,3.0,4.0,84,0.00,,---,0.00,VWS V14.00,2013-11-30 12:39:00,
2013-11-30 06:40:00,28.7,24.5,30.10,South,186,4.0,4.0,84,0.00,,---,0.00,VWS V14.00,2013-11-30 12:40:00,
2013-11-30 06:44:00,28.9,24.7,30.10,South,169,1.0,6.0,84,0.00,,---,0.00,VWS V14.00,2013-11-30 12:44:00,
2013-11-30 06:45:00,28.9,24.7,30.10,South,169,0.0,6.0,84,0.00,,---,0.00,VWS V14.00,2013-11-30 12:45:00,
2013-11-30 06:49:00,28.9,24.4,30.10,South,169,0.0,1.0,83,0.00,,---,0.00,VWS V14.00,2013-11-30 12:49:00,
2013-11-30 06:50:00,28.9,24.4,30.10,South,169,0.0,1.0,83,0.00,,---,0.00,VWS V14.00,2013-11-30 12:50:00,
2013-11-30 06:54:00,29.0,24.5,30.09,South,169,0.0,3.0,83,0.00,,---,0.00,VWS V14.00,2013-11-30 12:54:00,
2013-11-30 06:55:00,28.9,24.4,30.09,South,169,0.0,3.0,83,0.00,,---,0.00,VWS V14.00,2013-11-30 12:55:00,
2013-11-30 06:59:00,28.9,24.4,30.09,South,169,0.0,2.0,83,0.00,,---,0.00,VWS V14.00,2013-11-30 12:59:00,
2013-11-30 07:00:00,28.9,24.4,30.09,South,169,2.0,2.0,83,0.00,,---,0.00,VWS V14.00,2013-11-30 13:00:00,
2013-11-30 07:04:00,28.9,24.4,30.09,South,169,0.0,3.0,83,0.00,,---,0.00,VWS V14.00,2013-11-30 13:04:00,
2013-11-30 07:05:00,28.9,24.4,30.09,South,169,0.0,3.0,83,0.00,,---,0.00,VWS V14.00,2013-11-30 13:05:00,
2013-11-30 07:09:00,28.9,24.4,30.09,South,169,0.0,3.0,83,0.00,,---,0.00,VWS V14.00,2013-11-30 13:09:00,
2013-11-30 07:10:00,28.9,24.4,30.09,South,169,0.0,3.0,83,0.00,,---,0.00,VWS V14.00,2013-11-30 13:10:00,
2013-11-30 07:14:00,28.9,24.4,30.09,South,169,0.0,0.0,83,0.00,,---,0.00,VWS V14.00,2013-11-30 13:14:00,
2013-11-30 07:15:00,28.9,24.4,30.09,South,169,0.0,0.0,83,0.00,,---,0.00,VWS V14.00,2013-11-30 13:15:00,
2013-11-30 07:20:00,28.7,24.2,30.09,SSE,157,2.0,3.0,83,0.00,,---,0.00,VWS V14.00,2013-11-30 13:20:00,
2013-11-30 07:25:00,28.7,24.5,30.09,South,178,0.0,2.0,84,0.00,,---,0.00,VWS V14.00,2013-11-30 13:25:00,
2013-11-30 07:30:00,28.7,24.5,30.09,South,180,0.0,2.0,84,0.00,,---,0.00,VWS V14.00,2013-11-30 13:30:00,
2013-11-30 07:35:00,28.8,24.6,30.09,South,179,0.0,4.0,84,0.00,,---,0.00,VWS V14.00,2013-11-30 13:35:00,
2013-11-30 07:40:00,28.8,24.6,30.08,SSW,205,0.0,6.0,84,0.00,,---,0.00,VWS V14.00,2013-11-30 13:40:00,
2013-11-30 07:45:00,28.7,24.5,30.09,SE,140,3.0,4.0,84,0.00,,---,0.00,VWS V14.00,2013-11-30 13:45:00,
2013-11-30 07:50:00,28.8,24.6,30.08,South,184,0.0,1.0,84,0.00,,---,0.00,VWS V14.00,2013-11-30 13:50:00,
2013-11-30 07:55:00,28.9,25.0,30.08,SW,225,3.0,7.0,85,0.00,,---,0.00,VWS V14.00,2013-11-30 13:55:00,
2013-11-30 08:00:00,29.2,25.0,30.08,SW,223,2.0,3.0,84,0.00,,---,0.00,VWS V14.00,2013-11-30 14:00:00,
2013-11-30 08:05:00,29.4,25.2,30.08,SSW,200,3.0,5.0,84,0.00,,---,0.00,VWS V14.00,2013-11-30 14:05:00,
2013-11-30 08:10:00,29.9,25.7,30.08,South,171,0.0,3.0,84,0.00,,---,0.00,VWS V14.00,2013-11-30 14:10:00,
2013-11-30 08:15:00,30.3,25.8,30.08,South,179,0.0,4.0,83,0.00,,---,0.00,VWS V14.00,2013-11-30 14:15:00,
2013-11-30 08:16:00,30.4,25.9,30.08,SSE,165,0.0,2.0,83,0.00,,---,0.00,VWS V14.00,2013-11-30 14:16:00,
2013-11-30 08:20:00,30.7,25.9,30.08,SSE,163,2.0,4.0,82,0.00,,---,0.00,VWS V14.00,2013-11-30 14:20:00,
2013-11-30 08:21:00,30.8,26.0,30.08,South,175,4.0,7.0,82,0.00,,---,0.00,VWS V14.00,2013-11-30 14:21:00,
2013-11-30 08:25:00,31.1,26.3,30.08,SSE,162,2.0,7.0,82,0.00,,---,0.00,VWS V14.00,2013-11-30 14:25:00,
2013-11-30 08:26:00,31.2,26.4,30.07,SSE,165,4.0,5.0,82,0.00,,---,0.00,VWS V14.00,2013-11-30 14:26:00,
2013-11-30 08:30:00,31.3,26.2,30.07,South,175,3.0,6.0,81,0.00,,---,0.00,VWS V14.00,2013-11-30 14:30:00,
2013-11-30 08:31:00,31.4,26.2,30.07,SSE,149,3.0,5.0,81,0.00,,---,0.00,VWS V14.00,2013-11-30 14:31:00,
2013-11-30 08:35:00,31.4,26.2,30.07,South,173,1.0,5.0,81,0.00,,---,0.00,VWS V14.00,2013-11-30 14:35:00,
2013-11-30 08:36:00,31.5,26.4,30.07,SSE,161,3.0,5.0,81,0.00,,---,0.00,VWS V14.00,2013-11-30 14:36:00,
2013-11-30 08:40:00,31.5,26.4,30.07,SSE,149,2.0,5.0,81,0.00,,---,0.00,VWS V14.00,2013-11-30 14:40:00,
2013-11-30 08:41:00,31.7,26.5,30.07,South,169,0.0,5.0,81,0.00,,---,0.00,VWS V14.00,2013-11-30 14:41:00,
2013-11-30 08:45:00,31.9,26.7,30.07,SSE,150,0.0,5.0,81,0.00,,---,0.00,VWS V14.00,2013-11-30 14:45:00,
2013-11-30 08:47:00,32.1,26.9,30.07,SSE,150,1.0,2.0,81,0.00,,---,0.00,VWS V14.00,2013-11-30 14:47:00,
2013-11-30 08:50:00,32.4,26.9,30.07,SSE,163,0.0,5.0,80,0.00,,---,0.00,VWS V14.00,2013-11-30 14:50:00,
2013-11-30 08:52:00,32.6,27.1,30.07,South,178,6.0,7.0,80,0.00,,---,0.00,VWS V14.00,2013-11-30 14:52:00,
2013-11-30 08:55:00,32.8,27.3,30.06,SSW,198,4.0,7.0,80,0.00,,---,0.00,VWS V14.00,2013-11-30 14:55:00,
2013-11-30 08:57:00,32.9,27.4,30.06,SSE,167,5.0,9.0,80,0.00,,---,0.00,VWS V14.00,2013-11-30 14:57:00,
2013-11-30 09:00:00,33.1,27.6,30.06,South,169,8.0,9.0,80,0.00,,---,0.00,VWS V14.00,2013-11-30 15:00:00,
2013-11-30 09:02:00,33.2,27.4,30.06,SSE,150,6.0,9.0,79,0.00,,---,0.00,VWS V14.00,2013-11-30 15:02:00,
2013-11-30 09:05:00,33.2,27.4,30.06,SSE,160,1.0,9.0,79,0.00,,---,0.00,VWS V14.00,2013-11-30 15:05:00,
2013-11-30 09:07:00,33.3,27.5,30.06,SE,134,4.0,8.0,79,0.00,,---,0.00,VWS V14.00,2013-11-30 15:07:00,
2013-11-30 09:10:00,33.4,27.6,30.06,SSW,192,6.0,9.0,79,0.00,,---,0.00,VWS V14.00,2013-11-30 15:10:00,
2013-11-30 09:12:00,33.5,27.7,30.05,SSE,150,3.0,7.0,79,0.00,,---,0.00,VWS V14.00,2013-11-30 15:12:00,
2013-11-30 09:15:00,33.6,27.8,30.05,SSE,161,6.0,10.0,79,0.00,,---,0.00,VWS V14.00,2013-11-30 15:15:00,
2013-11-30 09:17:00,33.8,28.0,30.06,SSE,164,6.0,6.0,79,0.00,,---,0.00,VWS V14.00,2013-11-30 15:17:00,
2013-11-30 09:20:00,34.0,28.2,30.05,SSE,160,2.0,6.0,79,0.00,,---,0.00,VWS V14.00,2013-11-30 15:20:00,
2013-11-30 09:22:00,34.2,28.1,30.06,South,171,5.0,10.0,78,0.00,,---,0.00,VWS V14.00,2013-11-30 15:22:00,
2013-11-30 09:25:00,34.2,28.1,30.05,SSE,163,1.0,10.0,78,0.00,,---,0.00,VWS V14.00,2013-11-30 15:25:00,
2013-11-30 09:28:00,34.4,28.3,30.05,SSE,164,6.0,9.0,78,0.00,,---,0.00,VWS V14.00,2013-11-30 15:28:00,
2013-11-30 09:30:00,34.4,28.3,30.05,SSW,192,2.0,10.0,78,0.00,,---,0.00,VWS V14.00,2013-11-30 15:30:00,
2013-11-30 09:33:00,34.8,28.6,30.05,SSE,165,6.0,9.0,78,0.00,,---,0.00,VWS V14.00,2013-11-30 15:33:00,
2013-11-30 09:35:00,34.9,28.8,30.05,SSE,167,3.0,9.0,78,0.00,,---,0.00,VWS V14.00,2013-11-30 15:35:00,
2013-11-30 09:38:00,35.2,28.7,30.05,SE,145,5.0,7.0,77,0.00,,---,0.00,VWS V14.00,2013-11-30 15:38:00,
2013-11-30 09:40:00,35.3,28.8,30.05,South,179,5.0,7.0,77,0.00,,---,0.00,VWS V14.00,2013-11-30 15:40:00,
2013-11-30 09:43:00,35.6,29.1,30.05,SSE,157,4.0,7.0,77,0.00,,---,0.00,VWS V14.00,2013-11-30 15:43:00,
2013-11-30 09:45:00,35.7,28.9,30.05,SE,146,5.0,10.0,76,0.00,,---,0.00,VWS V14.00,2013-11-30 15:45:00,
2013-11-30 09:48:00,35.8,29.0,30.05,SSE,163,2.0,7.0,76,0.00,,---,0.00,VWS V14.00,2013-11-30 15:48:00,
2013-11-30 09:50:00,35.9,29.1,30.05,SSE,154,4.0,7.0,76,0.00,,---,0.00,VWS V14.00,2013-11-30 15:50:00,
2013-11-30 09:53:00,36.4,29.6,30.05,SSE,157,2.0,6.0,76,0.00,,---,0.00,VWS V14.00,2013-11-30 15:53:00,
2013-11-30 09:55:00,36.5,29.7,30.05,SSE,149,5.0,6.0,76,0.00,,---,0.00,VWS V14.00,2013-11-30 15:55:00,
2013-11-30 09:58:00,37.2,29.7,30.05,SSE,168,0.0,6.0,74,0.00,,---,0.00,VWS V14.00,2013-11-30 15:58:00,
2013-11-30 10:00:00,37.3,30.1,30.05,SSW,204,4.0,6.0,75,0.00,,---,0.00,VWS V14.00,2013-11-30 16:00:00,
2013-11-30 10:04:00,38.0,30.1,30.05,SW,223,9.0,9.0,73,0.00,,---,0.00,VWS V14.00,2013-11-30 16:04:00,
2013-11-30 10:05:00,38.0,29.8,30.05,SW,227,5.0,9.0,72,0.00,,---,0.00,VWS V14.00,2013-11-30 16:05:00,
2013-11-30 10:09:00,38.4,30.2,30.05,SSE,159,1.0,6.0,72,0.00,,---,0.00,VWS V14.00,2013-11-30 16:09:00,
2013-11-30 10:10:00,38.4,30.2,30.05,SW,232,1.0,6.0,72,0.00,,---,0.00,VWS V14.00,2013-11-30 16:10:00,
2013-11-30 10:14:00,39.2,30.6,30.04,WSW,246,2.0,6.0,71,0.00,,---,0.00,VWS V14.00,2013-11-30 16:14:00,
2013-11-30 10:15:00,39.2,30.6,30.04,WSW,247,3.0,6.0,71,0.00,,---,0.00,VWS V14.00,2013-11-30 16:15:00,
2013-11-30 10:19:00,39.0,30.1,30.05,SSW,192,4.0,11.0,70,0.00,,---,0.00,VWS V14.00,2013-11-30 16:19:00,
2013-11-30 10:20:00,39.0,30.1,30.05,South,171,1.0,11.0,70,0.00,,---,0.00,VWS V14.00,2013-11-30 16:20:00,
2013-11-30 10:24:00,39.1,29.8,30.04,SSE,161,5.0,6.0,69,0.00,,---,0.00,VWS V14.00,2013-11-30 16:24:00,
2013-11-30 10:25:00,39.1,29.8,30.04,SSE,161,5.0,6.0,69,0.00,,---,0.00,VWS V14.00,2013-11-30 16:25:00,
2013-11-30 10:29:00,38.7,29.8,30.03,SSE,159,1.0,11.0,70,0.00,,---,0.00,VWS V14.00,2013-11-30 16:29:00,
2013-11-30 10:30:00,38.7,29.8,30.03,South,173,3.0,11.0,70,0.00,,---,0.00,VWS V14.00,2013-11-30 16:30:00,
2013-11-30 10:34:00,39.0,30.1,30.03,SSE,161,4.0,7.0,70,0.00,,---,0.00,VWS V14.00,2013-11-30 16:34:00,
2013-11-30 10:35:00,38.9,30.0,30.03,SSE,164,4.0,7.0,70,0.00,,---,0.00,VWS V14.00,2013-11-30 16:35:00,
2013-11-30 10:39:00,39.1,29.8,30.03,South,174,10.0,13.0,69,0.01,,---,0.01,VWS V14.00,2013-11-30 16:39:00,
2013-11-30 10:40:00,39.0,29.7,30.03,South,175,6.0,14.0,69,0.01,,---,0.01,VWS V14.00,2013-11-30 16:40:00,
2013-11-30 10:44:00,38.6,29.7,30.02,SW,226,5.0,6.0,70,0.01,,---,0.01,VWS V14.00,2013-11-30 16:44:00,
2013-11-30 10:45:00,38.6,29.7,30.03,SW,215,6.0,14.0,70,0.01,,---,0.01,VWS V14.00,2013-11-30 16:45:00,
2013-11-30 10:49:00,38.4,29.5,30.02,South,170,2.0,3.0,70,0.01,,---,0.01,VWS V14.00,2013-11-30 16:49:00,
2013-11-30 10:50:00,38.4,29.5,30.02,South,171,1.0,12.0,70,0.01,,---,0.01,VWS V14.00,2013-11-30 16:50:00,
2013-11-30 10:54:00,39.0,30.1,30.02,South,173,4.0,5.0,70,0.01,,---,0.01,VWS V14.00,2013-11-30 16:54:00,
2013-11-30 10:55:00,39.0,30.4,30.02,South,186,5.0,12.0,71,0.01,,---,0.01,VWS V14.00,2013-11-30 16:55:00,
2013-11-30 10:59:00,39.1,29.8,30.02,South,188,2.0,7.0,69,0.01,,---,0.01,VWS V14.00,2013-11-30 16:59:00,
2013-11-30 11:00:00,39.1,29.8,30.02,South,185,5.0,7.0,69,0.01,,---,0.01,VWS V14.00,2013-11-30 17:00:00,
2013-11-30 11:05:00,39.1,30.2,30.01,SSE,149,2.0,6.0,70,0.01,,---,0.01,VWS V14.00,2013-11-30 17:05:00,
2013-11-30 11:10:00,39.2,30.2,30.01,SSW,210,3.0,7.0,70,0.01,,---,0.01,VWS V14.00,2013-11-30 17:10:00,
2013-11-30 11:15:00,39.7,30.7,30.01,SSE,161,4.0,9.0,70,0.01,,---,0.01,VWS V14.00,2013-11-30 17:15:00,
2013-11-30 11:20:00,39.9,30.6,30.00,SSE,153,5.0,5.0,69,0.01,,---,0.01,VWS V14.00,2013-11-30 17:20:00,
2013-11-30 11:25:00,40.0,30.7,30.00,SSE,150,7.0,9.0,69,0.01,,---,0.01,VWS V14.00,2013-11-30 17:25:00,
2013-11-30 11:30:00,40.0,30.7,30.00,South,173,2.0,5.0,69,0.01,,---,0.01,VWS V14.00,2013-11-30 17:30:00,
2013-11-30 11:35:00,40.1,30.8,30.00,South,188,9.0,10.0,69,0.01,,---,0.01,VWS V14.00,2013-11-30 17:35:00,
2013-11-30 11:40:00,40.4,31.0,29.99,SSE,161,10.0,10.0,69,0.00,,---,0.01,VWS V14.00,2013-11-30 17:40:00,
2013-11-30 11:45:00,40.5,30.8,29.99,SSE,161,5.0,7.0,68,0.00,,---,0.01,VWS V14.00,2013-11-30 17:45:00,
2013-11-30 11:50:00,40.6,30.9,29.99,SE,146,3.0,11.0,68,0.00,,---,0.01,VWS V14.00,2013-11-30 17:50:00,
2013-11-30 11:55:00,40.9,31.5,29.98,SSE,148,4.0,11.0,69,0.00,,---,0.01,VWS V14.00,2013-11-30 17:55:00,
2013-11-30 11:56:00,41.0,31.3,29.98,SSE,167,5.0,5.0,68,0.00,,---,0.01,VWS V14.00,2013-11-30 17:56:00,
2013-11-30 12:00:00,41.2,31.5,29.98,SSE,159,3.0,9.0,68,0.00,,---,0.01,VWS V14.00,2013-11-30 18:00:00,
2013-11-30 12:01:00,41.3,31.5,29.98,South,175,3.0,9.0,68,0.00,,---,0.01,VWS V14.00,2013-11-30 18:01:00,
2013-11-30 12:05:00,41.4,31.3,29.98,SE,136,5.0,9.0,67,0.00,,---,0.01,VWS V14.00,2013-11-30 18:05:00,
2013-11-30 12:06:00,41.5,31.4,29.97,SSE,160,5.0,9.0,67,0.00,,---,0.01,VWS V14.00,2013-11-30 18:06:00,
2013-11-30 12:10:00,41.8,31.7,29.97,SSE,153,2.0,9.0,67,0.00,,---,0.01,VWS V14.00,2013-11-30 18:10:00,
2013-11-30 12:11:00,41.9,31.8,29.97,SSE,163,5.0,6.0,67,0.00,,---,0.01,VWS V14.00,2013-11-30 18:11:00,
2013-11-30 12:15:00,42.1,32.0,29.97,SE,144,6.0,9.0,67,0.00,,---,0.01,VWS V14.00,2013-11-30 18:15:00,
2013-11-30 12:16:00,42.2,31.7,29.97,SSE,152,1.0,7.0,66,0.00,,---,0.01,VWS V14.00,2013-11-30 18:16:00,
2013-11-30 12:20:00,42.5,31.6,29.97,SSE,167,2.0,7.0,65,0.00,,---,0.01,VWS V14.00,2013-11-30 18:20:00,
2013-11-30 12:21:00,42.5,32.0,29.97,SSE,163,3.0,10.0,66,0.00,,---,0.01,VWS V14.00,2013-11-30 18:21:00,
2013-11-30 12:25:00,42.4,31.5,29.97,SSW,193,3.0,10.0,65,0.00,,---,0.01,VWS V14.00,2013-11-30 18:25:00,
2013-11-30 12:26:00,42.4,31.5,29.97,SSW,192,3.0,6.0,65,0.00,,---,0.01,VWS V14.00,2013-11-30 18:26:00,
2013-11-30 12:30:00,42.5,31.6,29.97,SSW,202,4.0,7.0,65,0.00,,---,0.01,VWS V14.00,2013-11-30 18:30:00,
2013-11-30 12:31:00,42.5,31.6,29.97,South,172,6.0,9.0,65,0.00,,---,0.01,VWS V14.00,2013-11-30 18:31:00,
2013-11-30 12:35:00,42.3,31.4,29.96,SSE,147,5.0,10.0,65,0.00,,---,0.01,VWS V14.00,2013-11-30 18:35:00,
2013-11-30 12:36:00,42.4,31.9,29.96,South,180,2.0,10.0,66,0.00,,---,0.01,VWS V14.00,2013-11-30 18:36:00,
2013-11-30 12:40:00,42.7,32.2,29.96,SSE,165,6.0,10.0,66,0.00,,---,0.01,VWS V14.00,2013-11-30 18:40:00,
2013-11-30 12:41:00,42.7,31.8,29.96,SSE,165,9.0,11.0,65,0.00,,---,0.01,VWS V14.00,2013-11-30 18:41:00,
2013-11-30 12:45:00,42.5,31.6,29.96,South,175,5.0,11.0,65,0.00,,---,0.01,VWS V14.00,2013-11-30 18:45:00,
2013-11-30 12:46:00,42.5,31.6,29.96,South,182,3.0,11.0,65,0.00,,---,0.01,VWS V14.00,2013-11-30 18:46:00,
2013-11-30 12:50:00,42.6,31.7,29.96,SSE,161,6.0,11.0,65,0.00,,---,0.01,VWS V14.00,2013-11-30 18:50:00,
2013-11-30 12:51:00,42.8,31.9,29.95,SSW,202,5.0,9.0,65,0.00,,---,0.01,VWS V14.00,2013-11-30 18:51:00,
2013-11-30 12:55:00,42.9,32.0,29.95,SSE,167,5.0,9.0,65,0.00,,---,0.01,VWS V14.00,2013-11-30 18:55:00,
2013-11-30 12:56:00,42.9,31.6,29.95,SSW,194,4.0,11.0,64,0.00,,---,0.01,VWS V14.00,2013-11-30 18:56:00,
2013-11-30 13:00:00,42.8,31.5,29.95,SE,145,4.0,11.0,64,0.00,,---,0.01,VWS V14.00,2013-11-30 19:00:00,
2013-11-30 13:02:00,42.9,32.0,29.95,SSE,154,2.0,6.0,65,0.00,,---,0.01,VWS V14.00,2013-11-30 19:02:00,
2013-11-30 13:05:00,43.2,32.2,29.95,South,185,3.0,6.0,65,0.00,,---,0.01,VWS V14.00,2013-11-30 19:05:00,
2013-11-30 13:07:00,43.4,32.4,29.95,SSE,155,7.0,7.0,65,0.00,,---,0.01,VWS V14.00,2013-11-30 19:07:00,
2013-11-30 13:10:00,43.5,31.8,29.95,South,182,3.0,7.0,63,0.00,,---,0.01,VWS V14.00,2013-11-30 19:10:00,
2013-11-30 13:12:00,43.5,31.8,29.94,SSW,194,2.0,7.0,63,0.00,,---,0.01,VWS V14.00,2013-11-30 19:12:00,
2013-11-30 13:15:00,43.5,32.2,29.95,SSW,203,7.0,7.0,64,0.00,,---,0.01,VWS V14.00,2013-11-30 19:15:00,
2013-11-30 13:17:00,43.5,32.2,29.94,SW,217,0.0,10.0,64,0.00,,---,0.01,VWS V14.00,2013-11-30 19:17:00,
2013-11-30 13:20:00,43.6,32.2,29.94,SW,214,3.0,10.0,64,0.00,,---,0.01,VWS V14.00,2013-11-30 19:20:00,
2013-11-30 13:22:00,43.6,32.2,29.94,SSE,154,3.0,9.0,64,0.00,,---,0.01,VWS V14.00,2013-11-30 19:22:00,
2013-11-30 13:25:00,43.6,32.2,29.94,SSW,194,3.0,9.0,64,0.00,,---,0.01,VWS V14.00,2013-11-30 19:25:00,
2013-11-30 13:27:00,43.6,32.2,29.94,SSE,165,6.0,11.0,64,0.00,,---,0.01,VWS V14.00,2013-11-30 19:27:00,
2013-11-30 13:30:00,43.6,32.2,29.94,SSE,168,5.0,11.0,64,0.00,,---,0.01,VWS V14.00,2013-11-30 19:30:00,
2013-11-30 13:32:00,43.5,32.5,29.94,South,175,3.0,7.0,65,0.00,,---,0.01,VWS V14.00,2013-11-30 19:32:00,
2013-11-30 13:35:00,43.5,32.2,29.94,South,187,4.0,10.0,64,0.00,,---,0.01,VWS V14.00,2013-11-30 19:35:00,
2013-11-30 13:37:00,43.5,32.2,29.94,SSE,151,2.0,6.0,64,0.00,,---,0.01,VWS V14.00,2013-11-30 19:37:00,
2013-11-30 13:40:00,43.5,32.5,29.94,SSE,152,2.0,6.0,65,0.00,,---,0.01,VWS V14.00,2013-11-30 19:40:00,
2013-11-30 13:43:00,43.8,32.4,29.94,SSW,203,4.0,9.0,64,0.00,,---,0.01,VWS V14.00,2013-11-30 19:43:00,
2013-11-30 13:45:00,43.8,32.4,29.94,SSE,165,3.0,10.0,64,0.00,,---,0.01,VWS V14.00,2013-11-30 19:45:00,
2013-11-30 13:48:00,43.9,32.5,29.94,SSE,157,2.0,4.0,64,0.00,,---,0.01,VWS V14.00,2013-11-30 19:48:00,
2013-11-30 13:50:00,43.9,32.5,29.94,SSE,157,0.0,4.0,64,0.00,,---,0.01,VWS V14.00,2013-11-30 19:50:00,
2013-11-30 13:53:00,44.1,32.3,29.94,SSW,192,1.0,6.0,63,0.00,,---,0.01,VWS V14.00,2013-11-30 19:53:00,
2013-11-30 13:55:00,44.1,32.3,29.94,SSW,211,0.0,6.0,63,0.00,,---,0.01,VWS V14.00,2013-11-30 19:55:00,
2013-11-30 13:58:00,43.9,31.7,29.93,SSW,203,3.0,11.0,62,0.00,,---,0.01,VWS V14.00,2013-11-30 19:58:00,
2013-11-30 14:00:00,43.9,32.1,29.93,SSW,209,2.0,11.0,63,0.00,,---,0.01,VWS V14.00,2013-11-30 20:00:00,
2013-11-30 14:03:00,44.1,32.3,29.93,South,190,2.0,4.0,63,0.00,,---,0.01,VWS V14.00,2013-11-30 20:03:00,
2013-11-30 14:05:00,44.2,32.4,29.93,WNW,288,5.0,5.0,63,0.00,,---,0.01,VWS V14.00,2013-11-30 20:05:00,
2013-11-30 14:08:00,44.3,32.1,29.93,SSE,165,2.0,5.0,62,0.00,,---,0.01,VWS V14.00,2013-11-30 20:08:00,
2013-11-30 14:10:00,44.3,32.1,29.93,WSW,254,3.0,5.0,62,0.00,,---,0.01,VWS V14.00,2013-11-30 20:10:00,
2013-11-30 14:13:00,44.2,32.4,29.93,South,184,4.0,5.0,63,0.00,,---,0.01,VWS V14.00,2013-11-30 20:13:00,
2013-11-30 14:15:00,44.2,32.4,29.93,South,183,3.0,5.0,63,0.00,,---,0.01,VWS V14.00,2013-11-30 20:15:00,
2013-11-30 14:19:00,44.1,32.3,29.93,SW,233,2.0,5.0,63,0.00,,---,0.01,VWS V14.00,2013-11-30 20:19:00,
2013-11-30 14:20:00,44.1,32.3,29.93,West,261,3.0,5.0,63,0.00,,---,0.01,VWS V14.00,2013-11-30 20:20:00,
2013-11-30 14:24:00,44.2,32.4,29.93,South,173,1.0,4.0,63,0.00,,---,0.01,VWS V14.00,2013-11-30 20:24:00,
2013-11-30 14:25:00,44.2,32.4,29.93,South,173,0.0,4.0,63,0.00,,---,0.01,VWS V14.00,2013-11-30 20:25:00,
2013-11-30 14:29:00,44.0,32.2,29.93,SW,214,4.0,9.0,63,0.00,,---,0.01,VWS V14.00,2013-11-30 20:29:00,
2013-11-30 14:30:00,44.0,32.2,29.93,SW,214,4.0,9.0,63,0.00,,---,0.01,VWS V14.00,2013-11-30 20:30:00,
2013-11-30 14:34:00,43.6,32.2,29.93,South,179,4.0,4.0,64,0.00,,---,0.01,VWS V14.00,2013-11-30 20:34:00,
2013-11-30 14:35:00,43.6,32.2,29.93,South,184,3.0,5.0,64,0.00,,---,0.01,VWS V14.00,2013-11-30 20:35:00,
2013-11-30 14:39:00,43.1,31.8,29.93,South,184,5.0,9.0,64,0.00,,---,0.01,VWS V14.00,2013-11-30 20:39:00,
2013-11-30 14:40:00,43.1,31.8,29.93,West,260,9.0,9.0,64,0.00,,---,0.01,VWS V14.00,2013-11-30 20:40:00,
2013-11-30 14:44:00,42.6,31.7,29.94,SSW,197,2.0,6.0,65,0.00,,---,0.01,VWS V14.00,2013-11-30 20:44:00,
2013-11-30 14:45:00,42.6,31.7,29.94,NNW,337,3.0,11.0,65,0.00,,---,0.01,VWS V14.00,2013-11-30 20:45:00,
2013-11-30 14:50:00,42.3,31.8,29.94,SSW,211,0.0,1.0,66,0.00,,---,0.01,VWS V14.00,2013-11-30 20:50:00,
2013-11-30 14:55:00,42.2,32.0,29.94,SW,229,1.0,1.0,67,0.00,,---,0.01,VWS V14.00,2013-11-30 20:55:00,
2013-11-30 15:00:00,42.1,32.0,29.94,SW,226,0.0,1.0,67,0.00,,---,0.01,VWS V14.00,2013-11-30 21:00:00,
2013-11-30 15:05:00,42.0,31.9,29.94,SW,232,0.0,1.0,67,0.00,,---,0.01,VWS V14.00,2013-11-30 21:05:00,
2013-11-30 15:10:00,41.8,31.7,29.94,West,269,3.0,4.0,67,0.00,,---,0.01,VWS V14.00,2013-11-30 21:10:00,
2013-11-30 15:15:00,41.7,31.9,29.94,South,179,2.0,3.0,68,0.00,,---,0.01,VWS V14.00,2013-11-30 21:15:00,
2013-11-30 15:20:00,41.5,31.7,29.94,WNW,285,3.0,7.0,68,0.00,,---,0.01,VWS V14.00,2013-11-30 21:20:00,
2013-11-30 15:25:00,41.4,31.6,29.94,SSW,213,2.0,7.0,68,0.00,,---,0.01,VWS V14.00,2013-11-30 21:25:00,
2013-11-30 15:26:00,41.4,31.6,29.94,South,186,2.0,3.0,68,0.00,,---,0.01,VWS V14.00,2013-11-30 21:26:00,
2013-11-30 15:30:00,41.3,31.9,29.94,SSW,192,2.0,4.0,69,0.00,,---,0.01,VWS V14.00,2013-11-30 21:30:00,
2013-11-30 15:31:00,41.3,31.9,29.94,SW,220,1.0,4.0,69,0.00,,---,0.01,VWS V14.00,2013-11-30 21:31:00,
2013-11-30 15:35:00,41.3,31.9,29.94,South,188,3.0,5.0,69,0.00,,---,0.01,VWS V14.00,2013-11-30 21:35:00,
2013-11-30 15:36:00,41.3,31.9,29.94,South,190,0.0,3.0,69,0.00,,---,0.01,VWS V14.00,2013-11-30 21:36:00,
2013-11-30 15:40:00,41.2,31.8,29.94,South,190,1.0,3.0,69,0.00,,---,0.01,VWS V14.00,2013-11-30 21:40:00,
2013-11-30 15:41:00,41.1,31.7,29.94,South,178,1.0,5.0,69,0.00,,---,0.01,VWS V14.00,2013-11-30 21:41:00,
2013-11-30 15:45:00,41.0,31.6,29.94,SW,223,0.0,5.0,69,0.00,,---,0.01,VWS V14.00,2013-11-30 21:45:00,
2013-11-30 15:47:00,41.0,31.6,29.94,SSW,196,0.0,4.0,69,0.00,,---,0.01,VWS V14.00,2013-11-30 21:47:00,
2013-11-30 15:50:00,40.9,31.9,29.94,South,178,0.0,4.0,70,0.00,,---,0.01,VWS V14.00,2013-11-30 21:50:00,
2013-11-30 15:52:00,40.9,31.9,29.94,South,178,0.0,2.0,70,0.00,,---,0.01,VWS V14.00,2013-11-30 21:52:00,
2013-11-30 15:55:00,40.8,31.8,29.94,West,273,0.0,2.0,70,0.00,,---,0.01,VWS V14.00,2013-11-30 21:55:00,
2013-11-30 15:57:00,40.8,31.8,29.94,SSW,207,4.0,4.0,70,0.00,,---,0.01,VWS V14.00,2013-11-30 21:57:00,
2013-11-30 16:00:00,40.7,31.7,29.94,SSW,204,2.0,4.0,70,0.00,,---,0.01,VWS V14.00,2013-11-30 22:00:00,
2013-11-30 16:02:00,40.7,31.7,29.94,SSW,204,0.0,3.0,70,0.00,,---,0.01,VWS V14.00,2013-11-30 22:02:00,
2013-11-30 16:05:00,40.6,31.6,29.94,WSW,247,5.0,5.0,70,0.00,,---,0.01,VWS V14.00,2013-11-30 22:05:00,
2013-11-30 16:07:00,40.6,31.6,29.94,SSW,198,0.0,5.0,70,0.00,,---,0.01,VWS V14.00,2013-11-30 22:07:00,
2013-11-30 16:10:00,40.5,31.9,29.94,SW,215,0.0,5.0,71,0.00,,---,0.01,VWS V14.00,2013-11-30 22:10:00,
2013-11-30 16:12:00,40.4,31.8,29.94,SW,215,0.0,0.0,71,0.00,,---,0.01,VWS V14.00,2013-11-30 22:12:00,
2013-11-30 16:15:00,40.4,31.8,29.94,SW,215,0.0,0.0,71,0.00,,---,0.01,VWS V14.00,2013-11-30 22:15:00,
2013-11-30 16:17:00,40.2,31.6,29.94,SW,215,0.0,1.0,71,0.00,,---,0.01,VWS V14.00,2013-11-30 22:17:00,
2013-11-30 16:20:00,40.1,31.5,29.94,SW,215,0.0,1.0,71,0.00,,---,0.01,VWS V14.00,2013-11-30 22:20:00,
2013-11-30 16:22:00,39.9,31.6,29.94,WSW,252,0.0,2.0,72,0.00,,---,0.01,VWS V14.00,2013-11-30 22:22:00,
2013-11-30 16:25:00,39.8,31.5,29.94,WSW,252,0.0,2.0,72,0.00,,---,0.01,VWS V14.00,2013-11-30 22:25:00,
2013-11-30 16:27:00,39.5,31.2,29.94,WSW,252,0.0,1.0,72,0.00,,---,0.01,VWS V14.00,2013-11-30 22:27:00,
2013-11-30 16:30:00,39.4,31.5,29.94,WSW,252,0.0,1.0,73,0.00,,---,0.01,VWS V14.00,2013-11-30 22:30:00,
2013-11-30 16:32:00,39.1,31.2,29.95,WSW,252,0.0,0.0,73,0.00,,---,0.01,VWS V14.00,2013-11-30 22:32:00,
2013-11-30 16:35:00,39.0,31.1,29.95,WSW,252,0.0,0.0,73,0.00,,---,0.01,VWS V14.00,2013-11-30 22:35:00,
2013-11-30 16:38:00,38.8,31.2,29.95,WSW,252,0.0,1.0,74,0.00,,---,0.01,VWS V14.00,2013-11-30 22:38:00,
2013-11-30 16:40:00,38.7,31.1,29.95,WSW,252,0.0,1.0,74,0.00,,---,0.01,VWS V14.00,2013-11-30 22:40:00,
2013-11-30 16:43:00,38.6,31.4,29.95,WSW,257,0.0,2.0,75,0.00,,---,0.01,VWS V14.00,2013-11-30 22:43:00,
2013-11-30 16:45:00,38.6,31.4,29.95,West,262,0.0,2.0,75,0.00,,---,0.01,VWS V14.00,2013-11-30 22:45:00,
2013-11-30 16:48:00,38.5,31.3,29.95,West,262,0.0,0.0,75,0.00,,---,0.01,VWS V14.00,2013-11-30 22:48:00,
2013-11-30 16:50:00,38.4,31.2,29.95,West,262,0.0,0.0,75,0.00,,---,0.01,VWS V14.00,2013-11-30 22:50:00,
2013-11-30 16:53:00,38.3,31.1,29.95,West,261,0.0,0.0,75,0.00,,---,0.01,VWS V14.00,2013-11-30 22:53:00,
2013-11-30 16:55:00,38.3,31.1,29.95,West,261,0.0,0.0,75,0.00,,---,0.01,VWS V14.00,2013-11-30 22:55:00,
2013-11-30 16:58:00,38.2,31.3,29.95,West,262,0.0,0.0,76,0.00,,---,0.01,VWS V14.00,2013-11-30 22:58:00,
2013-11-30 17:00:00,38.1,31.2,29.95,West,261,0.0,0.0,76,0.00,,---,0.01,VWS V14.00,2013-11-30 23:00:00,
2013-11-30 17:03:00,38.0,31.1,29.96,West,262,0.0,0.0,76,0.00,,---,0.01,VWS V14.00,2013-11-30 23:03:00,
2013-11-30 17:05:00,38.0,31.1,29.96,West,261,0.0,0.0,76,0.00,,---,0.01,VWS V14.00,2013-11-30 23:05:00,
2013-11-30 17:08:00,37.8,31.2,29.96,West,262,0.0,0.0,77,0.00,,---,0.01,VWS V14.00,2013-11-30 23:08:00,
2013-11-30 17:10:00,37.7,31.1,29.95,West,262,0.0,0.0,77,0.00,,---,0.01,VWS V14.00,2013-11-30 23:10:00,
2013-11-30 17:13:00,37.4,30.9,29.96,West,261,0.0,0.0,77,0.00,,---,0.01,VWS V14.00,2013-11-30 23:13:00,
2013-11-30 17:15:00,37.4,30.9,29.96,West,262,0.0,0.0,77,0.00,,---,0.01,VWS V14.00,2013-11-30 23:15:00,
2013-11-30 17:18:00,37.3,30.8,29.96,West,261,0.0,0.0,77,0.00,,---,0.01,VWS V14.00,2013-11-30 23:18:00,
2013-11-30 17:20:00,37.2,30.7,29.96,West,261,0.0,0.0,77,0.00,,---,0.01,VWS V14.00,2013-11-30 23:20:00,
2013-11-30 17:24:00,36.5,30.0,29.97,West,262,0.0,0.0,77,0.00,,---,0.01,VWS V14.00,2013-11-30 23:24:00,
2013-11-30 17:25:00,36.4,30.2,29.97,West,262,0.0,0.0,78,0.00,,---,0.01,VWS V14.00,2013-11-30 23:25:00,
2013-11-30 17:28:00,35.9,30.0,29.97,West,261,0.0,0.0,79,0.00,,---,0.01,VWS V14.00,2013-11-30 23:28:00,
2013-11-30 17:30:00,35.9,30.0,29.97,West,262,0.0,0.0,79,0.00,,---,0.01,VWS V14.00,2013-11-30 23:30:00,
2013-11-30 17:34:00,35.6,30.4,29.97,West,262,0.0,0.0,81,0.00,,---,0.01,VWS V14.00,2013-11-30 23:34:00,
2013-11-30 17:35:00,35.6,30.4,29.97,West,262,0.0,0.0,81,0.00,,---,0.01,VWS V14.00,2013-11-30 23:35:00,
2013-11-30 17:39:00,35.3,29.8,29.97,West,262,0.0,0.0,80,0.00,,---,0.01,VWS V14.00,2013-11-30 23:39:00,
2013-11-30 17:40:00,35.2,29.7,29.97,West,261,0.0,0.0,80,0.00,,---,0.01,VWS V14.00,2013-11-30 23:40:00,
2013-11-30 17:44:00,34.8,29.3,29.97,West,262,0.0,0.0,80,0.00,,---,0.01,VWS V14.00,2013-11-30 23:44:00,
2013-11-30 17:45:00,34.7,29.5,29.97,West,262,0.0,0.0,81,0.00,,---,0.01,VWS V14.00,2013-11-30 23:45:00,
2013-11-30 17:49:00,34.4,29.5,29.97,West,262,0.0,0.0,82,0.00,,---,0.01,VWS V14.00,2013-11-30 23:49:00,
2013-11-30 17:50:00,34.4,29.5,29.97,West,262,0.0,0.0,82,0.00,,---,0.01,VWS V14.00,2013-11-30 23:50:00,
2013-11-30 17:54:00,34.0,29.1,29.97,West,261,0.0,0.0,82,0.00,,---,0.01,VWS V14.00,2013-11-30 23:54:00,
2013-11-30 17:55:00,34.0,29.1,29.97,West,261,0.0,0.0,82,0.00,,---,0.01,VWS V14.00,2013-11-30 23:55:00,
2013-11-30 17:59:00,33.7,29.1,29.97,West,262,0.0,0.0,83,0.00,,---,0.01,VWS V14.00,2013-11-30 23:59:00,
2013-11-30 18:00:00,33.7,29.1,29.97,West,262,0.0,0.0,83,0.00,,---,0.01,VWS V14.00,2013-12-01 00:00:00,
2013-11-30 18:04:00,33.5,29.2,29.97,West,261,0.0,0.0,84,0.00,,---,0.01,VWS V14.00,2013-12-01 00:04:00,
2013-11-30 18:05:00,33.5,29.2,29.97,West,262,0.0,0.0,84,0.00,,---,0.01,VWS V14.00,2013-12-01 00:05:00,
2013-11-30 18:09:00,33.3,29.0,29.97,West,261,0.0,0.0,84,0.00,,---,0.01,VWS V14.00,2013-12-01 00:09:00,
2013-11-30 18:10:00,33.3,29.0,29.97,West,262,0.0,0.0,84,0.00,,---,0.01,VWS V14.00,2013-12-01 00:10:00,
2013-11-30 18:14:00,33.1,28.8,29.97,West,262,0.0,0.0,84,0.00,,---,0.01,VWS V14.00,2013-12-01 00:14:00,
2013-11-30 18:15:00,33.1,28.8,29.97,West,261,0.0,0.0,84,0.00,,---,0.01,VWS V14.00,2013-12-01 00:15:00,
2013-11-30 18:20:00,32.9,28.6,29.97,West,262,0.0,0.0,84,0.00,,---,0.01,VWS V14.00,2013-12-01 00:20:00,
2013-11-30 18:25:00,32.5,28.5,29.97,West,262,0.0,0.0,85,0.00,,---,0.01,VWS V14.00,2013-12-01 00:25:00,
2013-11-30 18:30:00,32.3,28.3,29.98,West,261,0.0,0.0,85,0.00,,---,0.01,VWS V14.00,2013-12-01 00:30:00,
2013-11-30 18:35:00,32.1,28.4,29.98,West,262,0.0,0.0,86,0.00,,---,0.01,VWS V14.00,2013-12-01 00:35:00,
2013-11-30 18:40:00,32.0,28.3,29.98,West,261,0.0,0.0,86,0.00,,---,0.01,VWS V14.00,2013-12-01 00:40:00,
2013-11-30 18:45:00,31.9,28.5,29.98,West,262,0.0,0.0,87,0.00,,---,0.01,VWS V14.00,2013-12-01 00:45:00,
2013-11-30 18:50:00,32.2,29.0,29.98,West,261,0.0,0.0,88,0.00,,---,0.01,VWS V14.00,2013-12-01 00:50:00,
2013-11-30 18:55:00,32.2,28.8,29.98,West,262,0.0,0.0,87,0.00,,---,0.01,VWS V14.00,2013-12-01 00:55:00,
2013-11-30 19:00:00,32.0,28.3,29.98,West,261,0.0,0.0,86,0.00,,---,0.01,VWS V14.00,2013-12-01 01:00:00,
2013-11-30 19:05:00,31.7,28.0,29.98,West,261,0.0,0.0,86,0.00,,---,0.01,VWS V14.00,2013-12-01 01:05:00,
2013-11-30 19:10:00,31.3,27.9,29.98,West,262,0.0,0.0,87,0.00,,---,0.01,VWS V14.00,2013-12-01 01:10:00,
2013-11-30 19:15:00,31.1,27.7,29.98,West,261,0.0,0.0,87,0.00,,---,0.01,VWS V14.00,2013-12-01 01:15:00,
2013-11-30 19:20:00,31.0,27.9,29.98,West,262,0.0,0.0,88,0.00,,---,0.01,VWS V14.00,2013-12-01 01:20:00,
2013-11-30 19:25:00,31.2,28.3,29.98,West,261,0.0,0.0,89,0.00,,---,0.01,VWS V14.00,2013-12-01 01:25:00,
2013-11-30 19:30:00,32.5,29.9,29.98,West,262,0.0,0.0,90,0.00,,---,0.01,VWS V14.00,2013-12-01 01:30:00,
2013-11-30 19:35:00,33.4,30.5,29.98,West,262,0.0,1.0,89,0.00,,---,0.01,VWS V14.00,2013-12-01 01:35:00,
2013-11-30 19:40:00,34.0,30.8,29.98,West,262,0.0,2.0,88,0.00,,---,0.01,VWS V14.00,2013-12-01 01:40:00,
2013-11-30 19:43:00,34.3,31.1,29.98,West,262,0.0,2.0,88,0.00,,---,0.01,VWS V14.00,2013-12-01 01:43:00,
2013-11-30 19:45:00,34.3,31.1,29.98,West,261,0.0,2.0,88,0.00,,---,0.01,VWS V14.00,2013-12-01 01:45:00,
2013-11-30 19:48:00,33.8,29.8,29.98,West,262,0.0,1.0,85,0.00,,---,0.01,VWS V14.00,2013-12-01 01:48:00,
2013-11-30 19:50:00,33.3,29.0,29.98,West,261,0.0,1.0,84,0.00,,---,0.01,VWS V14.00,2013-12-01 01:50:00,
2013-11-30 19:53:00,32.0,27.7,29.98,West,261,0.0,0.0,84,0.00,,---,0.01,VWS V14.00,2013-12-01 01:53:00,
2013-11-30 19:55:00,31.8,27.5,29.98,West,262,0.0,0.0,84,0.00,,---,0.01,VWS V14.00,2013-12-01 01:55:00,
2013-11-30 19:58:00,31.1,27.1,29.99,West,262,0.0,0.0,85,0.00,,---,0.01,VWS V14.00,2013-12-01 01:58:00,
2013-11-30 20:00:00,31.1,27.1,29.99,West,262,0.0,0.0,85,0.00,,---,0.01,VWS V14.00,2013-12-01 02:00:00,
2013-11-30 20:03:00,30.9,27.2,29.98,West,262,0.0,0.0,86,0.00,,---,0.01,VWS V14.00,2013-12-01 02:03:00,
2013-11-30 20:05:00,30.8,27.4,29.98,West,261,0.0,0.0,87,0.00,,---,0.01,VWS V14.00,2013-12-01 02:05:00,
2013-11-30 20:08:00,30.8,27.4,29.98,West,262,0.0,0.0,87,0.00,,---,0.01,VWS V14.00,2013-12-01 02:08:00,
2013-11-30 20:10:00,30.7,27.3,29.98,West,262,0.0,0.0,87,0.00,,---,0.01,VWS V14.00,2013-12-01 02:10:00,
2013-11-30 20:13:00,30.8,27.7,29.98,West,262,0.0,0.0,88,0.00,,---,0.01,VWS V14.00,2013-12-01 02:13:00,
2013-11-30 20:15:00,30.8,27.7,29.98,West,262,0.0,0.0,88,0.00,,---,0.01,VWS V14.00,2013-12-01 02:15:00,
2013-11-30 20:18:00,30.8,27.7,29.98,West,261,0.0,0.0,88,0.00,,---,0.01,VWS V14.00,2013-12-01 02:18:00,
2013-11-30 20:20:00,30.8,27.7,29.98,West,261,0.0,0.0,88,0.00,,---,0.01,VWS V14.00,2013-12-01 02:20:00,
2013-11-30 20:23:00,30.8,28.0,29.98,West,262,0.0,0.0,89,0.00,,---,0.01,VWS V14.00,2013-12-01 02:23:00,
2013-11-30 20:25:00,30.9,28.0,29.98,West,261,0.0,0.0,89,0.00,,---,0.01,VWS V14.00,2013-12-01 02:25:00,
2013-11-30 20:29:00,31.9,29.6,29.98,West,261,0.0,0.0,91,0.00,,---,0.01,VWS V14.00,2013-12-01 02:29:00,
2013-11-30 20:30:00,32.1,29.8,29.98,West,262,0.0,0.0,91,0.00,,---,0.01,VWS V14.00,2013-12-01 02:30:00,
2013-11-30 20:34:00,33.1,30.5,29.98,West,261,0.0,1.0,90,0.00,,---,0.01,VWS V14.00,2013-12-01 02:34:00,
2013-11-30 20:35:00,33.2,30.6,29.98,West,262,0.0,1.0,90,0.00,,---,0.01,VWS V14.00,2013-12-01 02:35:00,
2013-11-30 20:39:00,34.0,31.1,29.98,West,263,0.0,1.0,89,0.00,,---,0.01,VWS V14.00,2013-12-01 02:39:00,
2013-11-30 20:40:00,34.0,31.1,29.98,West,263,0.0,1.0,89,0.00,,---,0.01,VWS V14.00,2013-12-01 02:40:00,
2013-11-30 20:44:00,33.9,30.5,29.98,West,263,0.0,1.0,87,0.00,,---,0.01,VWS V14.00,2013-12-01 02:44:00,
2013-11-30 20:45:00,33.8,30.4,29.98,West,263,0.0,1.0,87,0.00,,---,0.01,VWS V14.00,2013-12-01 02:45:00,
2013-11-30 20:49:00,33.0,29.3,29.98,West,263,0.0,0.0,86,0.00,,---,0.01,VWS V14.00,2013-12-01 02:49:00,
2013-11-30 20:50:00,33.0,29.3,29.98,West,263,0.0,0.0,86,0.00,,---,0.01,VWS V14.00,2013-12-01 02:50:00,
2013-11-30 20:54:00,32.2,28.2,29.98,West,263,0.0,0.0,85,0.00,,---,0.01,VWS V14.00,2013-12-01 02:54:00,
2013-11-30 20:55:00,32.2,28.2,29.98,West,263,0.0,0.0,85,0.00,,---,0.01,VWS V14.00,2013-12-01 02:55:00,
2013-11-30 20:59:00,31.7,28.0,29.98,West,263,0.0,0.0,86,0.00,,---,0.01,VWS V14.00,2013-12-01 02:59:00,
2013-11-30 21:00:00,31.7,28.0,29.98,West,263,0.0,0.0,86,0.00,,---,0.01,VWS V14.00,2013-12-01 03:00:00,
2013-11-30 21:04:00,31.4,28.0,29.97,West,263,0.0,0.0,87,0.00,,---,0.01,VWS V14.00,2013-12-01 03:04:00,
2013-11-30 21:05:00,31.4,28.0,29.97,West,263,0.0,0.0,87,0.00,,---,0.01,VWS V14.00,2013-12-01 03:05:00,
2013-11-30 21:09:00,31.3,27.9,29.97,West,263,0.0,0.0,87,0.00,,---,0.01,VWS V14.00,2013-12-01 03:09:00,
2013-11-30 21:10:00,31.3,27.9,29.97,West,263,0.0,0.0,87,0.00,,---,0.01,VWS V14.00,2013-12-01 03:10:00,
2013-11-30 21:14:00,31.2,28.1,29.97,West,263,0.0,0.0,88,0.00,,---,0.01,VWS V14.00,2013-12-01 03:14:00,
2013-11-30 21:15:00,31.2,28.1,29.97,West,263,0.0,0.0,88,0.00,,---,0.01,VWS V14.00,2013-12-01 03:15:00,
2013-11-30 21:19:00,31.2,28.1,29.98,West,263,0.0,0.0,88,0.00,,---,0.01,VWS V14.00,2013-12-01 03:19:00,
2013-11-30 21:20:00,31.2,28.1,29.98,West,263,0.0,0.0,88,0.00,,---,0.01,VWS V14.00,2013-12-01 03:20:00,
2013-11-30 21:24:00,31.1,28.0,29.98,West,263,0.0,0.0,88,0.00,,---,0.01,VWS V14.00,2013-12-01 03:24:00,
2013-11-30 21:25:00,31.1,28.0,29.98,West,263,0.0,0.0,88,0.00,,---,0.01,VWS V14.00,2013-12-01 03:25:00,
2013-11-30 21:29:00,31.0,27.9,29.98,West,263,0.0,0.0,88,0.00,,---,0.01,VWS V14.00,2013-12-01 03:29:00,
2013-11-30 21:30:00,31.0,27.9,29.98,West,263,0.0,0.0,88,0.00,,---,0.01,VWS V14.00,2013-12-01 03:30:00,
2013-11-30 21:34:00,31.0,28.1,29.97,West,263,0.0,0.0,89,0.00,,---,0.01,VWS V14.00,2013-12-01 03:34:00,
2013-11-30 21:35:00,31.0,28.1,29.97,West,263,0.0,0.0,89,0.00,,---,0.01,VWS V14.00,2013-12-01 03:35:00,
2013-11-30 21:39:00,30.8,28.0,29.98,West,263,0.0,0.0,89,0.00,,---,0.01,VWS V14.00,2013-12-01 03:39:00,
2013-11-30 21:40:00,30.9,28.0,29.97,West,263,0.0,0.0,89,0.00,,---,0.01,VWS V14.00,2013-12-01 03:40:00,
2013-11-30 21:44:00,30.7,27.9,29.98,West,263,0.0,0.0,89,0.00,,---,0.01,VWS V14.00,2013-12-01 03:44:00,
2013-11-30 21:45:00,30.7,27.9,29.98,West,263,0.0,0.0,89,0.00,,---,0.01,VWS V14.00,2013-12-01 03:45:00,
2013-11-30 21:49:00,30.6,27.8,29.98,West,263,0.0,0.0,89,0.00,,---,0.01,VWS V14.00,2013-12-01 03:49:00,
2013-11-30 21:50:00,30.6,27.8,29.98,West,263,0.0,0.0,89,0.00,,---,0.01,VWS V14.00,2013-12-01 03:50:00,
2013-11-30 21:54:00,30.6,27.8,29.98,West,263,0.0,0.0,89,0.00,,---,0.01,VWS V14.00,2013-12-01 03:54:00,
2013-11-30 21:55:00,30.6,27.8,29.98,West,263,0.0,0.0,89,0.00,,---,0.01,VWS V14.00,2013-12-01 03:55:00,
2013-11-30 21:59:00,30.5,27.6,29.97,West,263,0.0,0.0,89,0.00,,---,0.01,VWS V14.00,2013-12-01 03:59:00,
2013-11-30 22:00:00,30.5,27.6,29.97,West,263,0.0,0.0,89,0.00,,---,0.01,VWS V14.00,2013-12-01 04:00:00,
2013-11-30 22:05:00,30.5,27.9,29.97,West,263,0.0,0.0,90,0.00,,---,0.01,VWS V14.00,2013-12-01 04:05:00,
2013-11-30 22:10:00,30.6,28.0,29.97,West,263,0.0,0.0,90,0.00,,---,0.01,VWS V14.00,2013-12-01 04:10:00,
2013-11-30 22:15:00,30.7,28.1,29.97,West,263,0.0,0.0,90,0.00,,---,0.01,VWS V14.00,2013-12-01 04:15:00,
2013-11-30 22:16:00,30.6,28.0,29.97,West,263,0.0,0.0,90,0.00,,---,0.01,VWS V14.00,2013-12-01 04:16:00,
2013-11-30 22:20:00,30.6,28.0,29.97,West,263,0.0,0.0,90,0.00,,---,0.01,VWS V14.00,2013-12-01 04:20:00,
2013-11-30 22:21:00,30.6,28.0,29.97,West,263,0.0,0.0,90,0.00,,---,0.01,VWS V14.00,2013-12-01 04:21:00,
2013-11-30 22:25:00,30.6,28.0,29.97,West,263,0.0,0.0,90,0.00,,---,0.01,VWS V14.00,2013-12-01 04:25:00,
2013-11-30 22:26:00,30.5,27.9,29.97,West,263,0.0,0.0,90,0.00,,---,0.01,VWS V14.00,2013-12-01 04:26:00,
2013-11-30 22:30:00,30.5,27.9,29.97,West,263,0.0,0.0,90,0.00,,---,0.01,VWS V14.00,2013-12-01 04:30:00,
2013-11-30 22:31:00,30.5,27.9,29.97,West,263,0.0,0.0,90,0.00,,---,0.01,VWS V14.00,2013-12-01 04:31:00,
2013-11-30 22:35:00,30.5,27.9,29.97,West,263,0.0,0.0,90,0.00,,---,0.01,VWS V14.00,2013-12-01 04:35:00,
2013-11-30 22:36:00,30.5,27.9,29.97,West,263,0.0,0.0,90,0.00,,---,0.01,VWS V14.00,2013-12-01 04:36:00,
2013-11-30 22:40:00,30.5,28.2,29.97,West,263,0.0,0.0,91,0.00,,---,0.01,VWS V14.00,2013-12-01 04:40:00,
2013-11-30 22:42:00,30.6,28.3,29.97,West,263,0.0,0.0,91,0.00,,---,0.01,VWS V14.00,2013-12-01 04:42:00,
2013-11-30 22:45:00,30.7,28.4,29.97,West,265,2.0,2.0,91,0.00,,---,0.01,VWS V14.00,2013-12-01 04:45:00,
2013-11-30 22:47:00,30.9,28.6,29.97,West,265,0.0,2.0,91,0.00,,---,0.01,VWS V14.00,2013-12-01 04:47:00,
2013-11-30 22:50:00,31.0,28.7,29.97,West,265,0.0,2.0,91,0.00,,---,0.01,VWS V14.00,2013-12-01 04:50:00,
2013-11-30 22:52:00,31.2,28.9,29.97,West,265,0.0,1.0,91,0.00,,---,0.01,VWS V14.00,2013-12-01 04:52:00,
2013-11-30 22:55:00,31.4,29.1,29.97,West,265,0.0,1.0,91,0.00,,---,0.01,VWS V14.00,2013-12-01 04:55:00,
2013-11-30 22:57:00,31.6,29.5,29.97,West,265,0.0,0.0,92,0.00,,---,0.01,VWS V14.00,2013-12-01 04:57:00,
2013-11-30 23:00:00,31.9,29.8,29.97,West,266,0.0,0.0,92,0.00,,---,0.01,VWS V14.00,2013-12-01 05:00:00,
2013-11-30 23:01:00,32.1,30.0,29.97,West,266,0.0,0.0,92,0.00,,---,0.01,VWS V14.00,2013-12-01 05:01:00,
2013-11-30 23:02:00,32.2,30.1,29.97,West,265,0.0,0.0,92,0.00,,---,0.01,VWS V14.00,2013-12-01 05:02:00,
2013-11-30 23:05:00,32.5,30.4,29.97,West,266,0.0,0.0,92,0.00,,---,0.01,VWS V14.00,2013-12-01 05:05:00,
2013-11-30 23:08:00,32.7,30.4,29.97,West,266,0.0,0.0,91,0.00,,---,0.01,VWS V14.00,2013-12-01 05:08:00,
2013-11-30 23:10:00,32.8,30.5,29.97,West,265,0.0,0.0,91,0.00,,---,0.01,VWS V14.00,2013-12-01 05:10:00,
2013-11-30 23:13:00,33.2,30.9,29.97,West,266,0.0,0.0,91,0.00,,---,0.01,VWS V14.00,2013-12-01 05:13:00,
2013-11-30 23:15:00,33.3,31.0,29.97,West,266,0.0,0.0,91,0.00,,---,0.01,VWS V14.00,2013-12-01 05:15:00,
2013-11-30 23:18:00,33.5,30.9,29.97,West,266,0.0,2.0,90,0.00,,---,0.01,VWS V14.00,2013-12-01 05:18:00,
2013-11-30 23:20:00,33.5,30.9,29.97,West,266,0.0,2.0,90,0.00,,---,0.01,VWS V14.00,2013-12-01 05:20:00,
2013-11-30 23:23:00,33.9,31.3,29.97,West,266,0.0,0.0,90,0.00,,---,0.01,VWS V14.00,2013-12-01 05:23:00,
2013-11-30 23:25:00,33.9,31.3,29.97,West,266,0.0,0.0,90,0.00,,---,0.01,VWS V14.00,2013-12-01 05:25:00,
2013-11-30 23:28:00,34.1,31.2,29.97,West,266,0.0,0.0,89,0.00,,---,0.01,VWS V14.00,2013-12-01 05:28:00,
2013-11-30 23:30:00,34.1,31.2,29.97,West,266,0.0,0.0,89,0.00,,---,0.01,VWS V14.00,2013-12-01 05:30:00,
2013-11-30 23:33:00,34.0,31.1,29.97,West,266,0.0,0.0,89,0.00,,---,0.01,VWS V14.00,2013-12-01 05:33:00,
2013-11-30 23:34:00,34.0,31.1,29.97,West,266,0.0,0.0,89,0.00,,---,0.01,VWS V14.00,2013-12-01 05:34:00,
2013-11-30 23:35:00,34.0,31.1,29.97,West,266,0.0,0.0,89,0.00,,---,0.01,VWS V14.00,2013-12-01 05:35:00,
2013-11-30 23:39:00,34.0,30.8,29.97,West,265,0.0,1.0,88,0.00,,---,0.01,VWS V14.00,2013-12-01 05:39:00,
2013-11-30 23:40:00,34.0,30.8,29.97,West,266,0.0,1.0,88,0.00,,---,0.01,VWS V14.00,2013-12-01 05:40:00,
2013-11-30 23:44:00,34.1,30.9,29.97,West,265,0.0,1.0,88,0.00,,---,0.01,VWS V14.00,2013-12-01 05:44:00,
2013-11-30 23:45:00,34.1,30.9,29.97,West,265,0.0,1.0,88,0.00,,---,0.01,VWS V14.00,2013-12-01 05:45:00,
2013-11-30 23:49:00,34.5,31.0,29.97,West,267,0.0,0.0,87,0.00,,---,0.01,VWS V14.00,2013-12-01 05:49:00,
2013-11-30 23:50:00,34.5,31.0,29.97,West,267,0.0,3.0,87,0.00,,---,0.01,VWS V14.00,2013-12-01 05:50:00,
2013-11-30 23:54:00,34.6,31.1,29.97,West,267,0.0,1.0,87,0.00,,---,0.01,VWS V14.00,2013-12-01 05:54:00,
2013-11-30 23:55:00,34.6,31.1,29.97,West,267,0.0,1.0,87,0.00,,---,0.01,VWS V14.00,2013-12-01 05:55:00,
2013-11-30 23:59:00,34.7,31.0,29.97,West,267,0.0,1.0,86,0.00,,---,0.01,VWS V14.00,2013-12-01 05:59:00,